Precipitable_Water
1.12 1.14 1.18 1.08 1.06 1.07 1.12 1.23 1.35 1.41 1.38 1.32 1.39 1.42 1.34 1.28 1.30 1.30 1.32 1.21 1.41 1.38 1.35 1.46 1.57 1.50 1.48 1.37 1.29 1.26 1.36 1.35 1.33
1.03 1.09 1.16 1.18 1.14 1.15 1.14 1.19 1.31 1.35 1.43 1.42 1.41 1.38 1.35 1.31 1.33 1.32 1.35 1.26 1.35 1.45 1.46 1.53 1.53 1.47 1.49 1.50 1.41 1.17 1.29 1.29 1.29
0.92 0.98 1.17 1.21 1.20 1.19 1.14 1.15 1.27 1.38 1.47 1.39 1.42 1.45 1.39 1.31 1.22 1.37 1.36 1.36 1.30 1.42 1.51 1.49 1.47 1.48 1.50 1.50 1.49 1.37 1.24 1.26 1.31
0.85 0.89 0.92 1.13 1.19 1.21 1.14 1.17 1.24 1.31 1.40 1.42 1.42 1.45 1.40 1.33 1.24 1.34 1.36 1.29 1.35 1.37 1.54 1.51 1.48 1.49 1.50 1.48 1.48 1.43 1.21 1.21 1.29
0.81 0.86 0.91 1.08 1.15 1.17 1.13 1.15 1.17 1.25 1.38 1.39 1.39 1.41 1.43 1.34 1.30 1.29 1.30 1.25 1.32 1.36 1.37 1.53 1.53 1.50 1.50 1.49 1.45 1.43 1.27 1.15 1.24
0.85 0.81 0.86 0.99 1.06 1.14 1.15 1.20 1.09 1.23 1.33 1.39 1.42 1.43 1.36 1.35 1.27 1.26 1.20 1.25 1.30 1.33 1.30 1.38 1.48 1.49 1.47 1.47 1.46 1.43 1.44 1.28 1.18
0.86 0.85 0.77 0.85 0.97 1.08 1.09 1.13 1.14 1.16 1.28 1.40 1.43 1.40 1.31 1.27 1.22 1.17 1.19 1.26 1.24 1.31 1.39 1.41 1.43 1.47 1.49 1.49 1.48 1.49 1.51 1.46 1.25
0.74 0.74 0.77 0.78 1.01 1.04 1.10 1.10 1.14 1.14 1.25 1.34 1.40 1.36 1.25 1.18 1.23 1.25 1.28 1.31 1.33 1.30 1.35 1.46 1.52 1.51 1.55 1.58 1.58 1.59 1.60 1.58 1.42
0.64 0.69 0.76 0.82 0.88 1.00 1.08 1.10 1.08 1.08 1.17 1.26 1.41 1.36 1.22 1.19 1.22 1.29 1.31 1.36 1.36 1.41 1.42 1.45 1.53 1.58 1.61 1.65 1.71 1.75 1.81 1.76 1.59
0.68 0.67 0.77 0.91 0.96 1.03 1.08 1.11 1.02 1.01 1.05 1.17 1.31 1.34 1.32 1.23 1.19 1.24 1.32 1.41 1.46 1.49 1.52 1.62 1.65 1.73 1.80 1.83 1.89 1.94 1.84 1.75 1.65
0.61 0.71 0.75 0.79 0.80 0.99 1.08 1.13 1.13 1.05 1.05 1.09 1.19 1.29 1.33 1.32 1.23 1.20 1.38 1.47 1.49 1.59 1.69 1.74 1.83 1.91 2.02 1.93 1.90 1.81 1.74 1.70 1.60
0.39 0.55 0.77 0.78 0.95 0.88 1.05 1.02 1.09 1.14 1.10 1.03 1.10 1.22 1.28 1.31 1.26 1.22 1.36 1.46 1.61 1.71 1.75 1.84 1.92 2.00 1.90 1.78 1.77 1.74 1.66 1.57 1.48
0.44 0.43 0.48 0.55 0.79 0.91 0.92 1.08 1.11 1.05 1.01 1.06 1.02 1.17 1.29 1.35 1.36 1.30 1.36 1.56 1.70 1.78 1.86 1.99 2.04 1.84 1.81 1.79 1.67 1.65 1.61 1.51 1.41
0.62 0.55 0.51 0.51 0.53 0.80 0.94 1.12 1.14 1.08 1.04 1.03 1.09 1.26 1.50 1.49 1.51 1.46 1.57 1.71 1.80 1.89 2.04 1.96 1.78 1.68 1.62 1.59 1.60 1.57 1.49 1.44 1.46
0.58 0.61 0.68 0.54 0.58 0.62 0.73 1.07 1.12 1.15 1.08 1.20 1.36 1.56 1.61 1.65 1.68 1.73 1.78 1.81 1.94 1.99 1.89 1.62 1.51 1.48 1.45 1.51 1.53 1.48 1.47 1.54 1.58
0.61 0.73 0.74 0.94 0.81 0.83 0.96 1.20 1.39 1.34 1.45 1.47 1.54 1.69 1.75 1.79 1.83 1.86 1.92 1.91 1.85 1.80 1.53 1.38 1.40 1.35 1.37 1.39 1.46 1.46 1.50 1.49 1.46
0.95 0.91 0.85 1.00 1.25 1.27 1.23 1.36 1.47 1.55 1.60 1.56 1.61 1.76 1.77 1.82 1.81 1.83 1.89 1.87 1.67 1.44 1.36 1.34 1.35 1.32 1.31 1.34 1.35 1.40 1.44 1.38 1.36
1.28 1.26 1.19 1.10 1.18 1.43 1.56 1.65 1.62 1.71 1.73 1.63 1.60 1.79 1.85 1.85 1.88 1.78 1.52 1.41 1.38 1.38 1.38 1.39 1.34 1.35 1.33 1.29 1.25 1.28 1.30 1.17 1.11
1.25 1.34 1.88 1.41 1.36 1.37 1.49 1.59 1.66 1.73 1.84 1.77 1.77 1.81 1.83 1.62 1.45 1.40 1.37 1.31 1.28 1.38 1.42 1.42 1.46 1.47 1.42 1.33 1.26 1.20 1.09 0.99 0.95
1.14 1.15 2.20 1.54 1.45 1.53 1.57 1.67 1.65 1.77 1.83 1.75 1.60 1.43 1.43 1.40 1.35 1.29 1.25 1.26 1.26 1.23 1.35 1.36 1.37 1.42 1.35 1.23 1.14 1.10 1.01 0.92 0.95
Wind_Speed
26 26 31 28 24 23 23 22 22 21 21 22 23 22 22 21 20 18 16 15 11 12 11 10 8 7 6 6 6 6 8 10 12
28 23 31 31 25 23 22 23 23 23 21 21 21 21 21 22 21 20 17 16 15 12 12 10 10 9 8 8 8 8 9 10 11
26 18 29 30 29 24 23 24 23 24 23 22 21 20 20 21 22 21 19 17 17 15 13 12 11 11 10 9 10 11 11 11 13
28 26 27 30 32 27 24 24 25 24 24 23 22 21 20 21 22 22 20 19 18 17 15 14 13 12 12 12 12 14 14 15 15
26 24 29 31 32 29 25 25 25 26 24 23 23 21 21 21 22 23 22 21 20 18 18 16 14 14 14 15 15 16 17 18 18
23 24 22 30 32 31 27 25 26 27 25 24 24 22 22 22 23 23 23 22 21 20 19 19 17 17 17 17 18 19 20 21 20
23 21 25 27 32 34 30 27 27 27 26 25 24 23 23 23 24 25 24 23 22 22 20 20 20 20 20 21 21 21 22 22 23
25 24 24 23 29 31 30 27 26 26 26 26 26 25 24 25 25 25 25 24 22 22 22 21 21 21 22 22 23 23 23 23 23
28 24 26 26 29 32 32 29 27 28 27 27 27 27 25 26 26 26 26 25 23 23 22 22 22 23 23 23 24 24 24 26 26
27 27 24 24 27 31 32 31 29 28 27 27 28 27 26 26 27 27 27 25 24 23 22 22 22 23 24 24 24 25 25 25 26
27 28 28 32 31 29 31 31 31 30 29 29 29 30 28 28 27 28 27 26 25 24 23 23 23 23 23 23 24 24 25 27 29
31 31 34 30 31 32 30 32 33 32 31 31 31 31 31 29 28 28 28 26 25 24 23 23 23 22 22 22 23 25 26 27 27
33 33 35 38 38 32 37 34 34 33 33 32 33 33 33 31 30 29 28 27 26 24 24 24 20 21 22 23 24 26 27 27 26
29 32 36 37 38 38 34 35 35 35 34 34 32 33 33 32 31 29 28 26 25 24 23 21 22 21 23 24 25 26 25 25 26
26 29 31 40 39 38 38 37 36 33 32 29 30 30 32 31 29 28 27 25 24 23 22 21 21 21 22 24 25 25 25 25 26
27 25 26 31 37 38 39 33 34 32 31 28 29 30 30 29 27 26 26 25 23 22 21 21 21 22 22 23 24 24 24 25 26
23 26 27 23 23 31 33 36 34 32 29 27 27 29 30 29 28 26 26 24 23 21 21 21 21 22 23 23 23 24 25 24 23
20 24 28 28 27 25 26 29 34 32 31 28 27 28 30 29 27 26 23 21 21 20 21 21 22 22 22 22 23 23 22 22 22
19 22 28 27 28 28 25 24 25 28 30 29 28 26 26 25 25 23 22 21 20 19 20 21 22 21 21 21 20 19 20 20 19
20 24 24 28 25 25 26 24 24 25 25 25 26 25 25 24 23 23 22 22 21 21 20 19 19 19 19 20 19 20 19 18 17
Wind_Direction
211 244 222 216 217 220 222 221 220 219 219 220 221 224 226 226 225 226 227 225 229 221 219 219 223 233 251 273 288 304 319 330 337
223 247 218 219 217 220 222 222 220 217 218 219 221 223 224 223 223 223 224 225 225 223 221 222 228 241 253 269 288 295 306 317 330
223 241 222 226 217 221 224 223 221 218 219 219 221 222 223 222 221 221 222 224 221 220 220 232 237 243 252 264 279 290 294 302 313
227 235 227 222 217 222 227 222 222 219 220 221 221 222 223 222 220 219 221 221 222 223 228 232 244 248 255 265 277 285 289 292 297
227 232 227 224 219 222 223 223 221 220 221 221 222 224 224 222 219 219 221 222 223 227 230 237 245 253 260 268 275 284 287 287 289
232 232 227 219 219 219 221 221 221 221 223 224 223 224 223 222 219 219 221 223 227 230 236 241 248 255 261 270 276 280 286 286 285
225 233 227 228 221 219 220 223 222 222 224 224 223 223 224 222 221 221 222 226 230 232 238 245 252 260 266 271 276 280 285 288 286
231 231 231 223 216 215 219 221 220 222 226 225 223 223 226 223 223 223 225 227 230 234 241 249 256 262 268 273 277 280 283 284 287
229 228 234 228 219 219 221 224 226 227 226 226 224 224 226 224 224 224 226 229 233 240 246 252 257 264 269 274 278 280 282 283 284
228 230 224 219 217 222 225 227 228 227 228 227 226 225 226 226 225 226 227 231 235 240 246 253 260 265 269 274 279 283 282 286 287
227 232 234 234 228 226 226 228 230 231 230 229 229 227 227 227 227 227 228 231 235 242 249 254 261 266 269 275 280 284 286 288 291
237 238 231 229 227 227 229 232 232 232 232 232 231 230 228 227 227 227 228 232 238 244 250 256 262 266 272 276 280 283 289 293 293
234 235 233 233 230 239 235 235 231 230 233 235 233 232 228 227 228 229 230 233 239 245 251 258 264 270 272 277 283 286 289 291 292
237 239 237 236 233 232 233 229 233 232 233 233 233 229 226 227 228 228 229 234 238 245 248 257 264 269 276 279 285 288 287 288 289
241 242 244 237 234 232 233 234 230 228 230 231 226 224 222 224 225 226 229 233 239 243 251 258 263 269 277 281 286 288 288 288 287
243 240 241 242 231 229 227 227 224 223 227 228 224 220 218 219 222 225 229 234 239 248 249 255 264 272 279 282 286 288 290 289 289
248 241 235 231 224 222 223 220 223 223 224 223 221 218 218 220 222 226 232 239 240 243 249 259 269 273 279 282 284 287 290 291 290
251 244 234 226 217 212 213 217 221 222 221 222 221 219 219 220 223 226 227 231 238 245 254 262 269 274 277 283 286 287 288 291 291
260 261 238 218 214 211 211 215 217 220 221 218 219 220 217 214 213 217 224 231 240 252 260 265 271 273 277 284 287 287 289 291 293
265 265 263 191 203 207 209 211 214 213 215 213 207 204 205 209 215 222 229 236 244 253 261 266 272 275 275 281 283 286 286 288 292